SCP
0 0 0 0 0 0 0 0 0 0 0 0 0 0 0 0 0 0 0 0 0 0 0 1 1 0 0 0 0 0 0 0 0 0 0 0 0 0 0 0 -0 0 0
0 0 0 0 0 0 0 0 0 0 0 0 0 0 0 0 0 0 0 0 0 0 0 0 1 1 0 0 0 0 0 0 0 0 0 0 0 0 0 0 0 -0 0
0 0 0 0 0 0 0 0 0 0 0 0 0 0 0 0 0 0 0 0 0 0 0 1 1 1 1 0 0 0 0 0 0 0 0 0 0 0 0 0 -0 0 0
1 0 0 0 0 0 0 0 0 0 0 0 0 0 0 0 0 0 0 0 0 0 0 0 1 1 1 0 0 0 0 0 0 0 0 0 0 -0 0 0 0 0 0
1 1 1 1 1 0 0 0 0 0 0 0 0 0 0 0 0 0 0 0 0 0 0 0 0 1 1 0 0 0 0 0 0 0 0 0 0 0 0 0 0 0 0
2 1 1 0 1 1 1 0 0 0 0 0 0 0 0 0 0 0 0 0 0 0 0 0 0 0 1 0 0 1 0 0 0 0 0 0 0 0 0 0 0 0 0
3 1 1 2 1 0 1 0 0 0 0 0 0 0 0 0 0 0 0 0 0 0 0 0 0 0 0 0 0 0 0 0 0 0 0 0 0 0 0 0 0 0 0
1 3 4 3 1 0 0 0 0 0 0 0 0 0 0 0 0 0 0 0 0 0 0 0 0 0 0 0 0 0 0 0 0 0 0 0 0 0 0 0 0 0 -0
1 0 0 2 2 0 0 0 0 0 0 0 0 0 0 0 0 0 0 0 0 0 0 0 0 0 0 0 0 0 0 0 0 0 0 0 0 0 0 0 0 0 0
2 0 0 1 5 3 1 1 0 0 0 0 0 0 0 0 1 1 0 0 0 0 0 0 0 0 0 0 0 0 0 0 0 0 0 0 0 0 0 0 -0 0 0
0 0 1 1 1 1 2 1 1 0 0 0 0 1 1 1 1 1 1 1 0 0 0 0 0 0 0 0 0 0 0 0 0 0 0 0 0 0 0 0 -0 -0 -0
0 0 0 1 1 1 1 2 1 1 0 0 1 1 1 1 0 0 0 0 0 0 0 0 0 0 0 0 0 0 0 0 0 0 0 0 0 0 0 0 -0 -0 -0
0 0 0 0 0 1 1 1 1 1 0 0 0 1 1 1 1 0 0 0 0 0 0 0 0 0 0 0 0 0 0 0 0 0 0 0 0 0 0 0 0 0 -0
0 0 0 0 0 0 1 1 1 0 1 0 -0 0 1 1 1 1 1 0 0 0 0 0 -0 0 0 0 0 0 0 0 0 0 0 0 0 0 0 0 0 0 0
0 0 0 0 0 0 0 1 1 1 1 -0 -0 0 1 1 2 2 1 1 0 0 0 -0 -0 0 0 0 0 0 0 0 0 0 0 0 0 0 0 0 0 0 -0
0 0 0 0 0 0 0 0 0 0 1 1 1 0 -0 0 2 2 1 1 0 0 0 -0 0 0 0 0 0 0 0 0 0 0 0 0 0 0 0 0 0 0 0
0 0 0 0 0 0 0 0 0 0 0 0 0 0 0 0 1 1 1 1 0 0 0 -0 0 0 0 0 0 0 0 0 0 0 0 0 0 0 0 0 0 0 0
0 0 0 0 0 0 0 0 0 0 0 0 0 0 0 0 1 0 0 0 0 0 0 0 0 0 0 0 0 0 0 0 0 0 0 0 0 0 0 0 0 0 0
0 0 0 0 0 0 0 0 0 0 0 0 0 0 0 0 0 1 0 0 0 0 0 0 0 0 0 0 0 0 0 0 0 0 0 0 0 0 0 0 0 0 0
0 0 0 0 0 0 0 0 0 0 0 0 0 0 0 0 0 0 0 0 0 0 0 0 0 0 0 0 0 0 0 0 0 0 0 0 0 0 0 0 0 0 0
0 0 0 0 0 0 0 0 0 0 0 0 0 0 0 0 0 0 0 0 1 0 0 0 0 0 0 0 0 0 0 0 0 0 0 0 0 0 0 0 0 0 0
0 0 0 0 0 0 0 0 0 0 0 0 0 0 0 0 0 0 0 0 0 0 0 0 0 0 0 0 0 0 0 0 0 0 0 0 0 0 0 0 0 0 0
0 0 0 0 0 0 0 0 0 0 0 -0 0 0 0 0 0 0 -0 0 0 0 0 0 0 0 0 0 0 0 0 0 0 0 0 0 0 0 0 0 0 0 0
0 0 0 0 0 0 0 0 0 0 0 -0 -0 -0 -0 0 0 0 0 0 0 0 0 0 0 0 0 0 0 0 0 0 0 0 0 0 0 0 0 0 0 0 0
0 0 0 0 0 0 0 0 0 0 0 -0 -0 -0 0 0 0 0 0 0 0 0 0 0 0 0 0 0 0 0 0 0 0 0 0 0 0 0 0 0 0 0 0
0 0 0 0 0 0 0 0 0 0 0 -0 -0 -0 -0 0 0 0 0 0 0 0 0 0 0 0 0 0 0 0 0 0 0 0 0 0 0 0 0 0 0 0 0
Wind_Speed_500mb
48 44 41 37 32 26 23 20 17 16 14 14 14 14 14 14 12 13 14 14 20 23 22 21 20 21 24 24 21 20 25 26 24 25 27 26 25 31 36 35 33 32 31
49 46 45 42 39 34 30 27 22 23 22 25 21 20 22 19 15 14 16 14 15 18 20 20 21 25 26 24 24 19 24 29 28 27 29 32 30 31 36 39 38 38 35
50 49 47 45 43 37 35 34 30 31 34 32 30 25 28 27 20 16 13 17 15 15 18 23 20 23 22 20 27 27 21 24 30 30 31 34 35 34 34 36 36 40 38
45 46 49 47 41 42 40 38 37 38 40 38 37 33 31 31 26 22 19 17 18 19 16 21 19 13 14 14 25 29 24 23 25 29 29 34 37 36 36 37 35 38 41
37 36 34 34 28 37 37 40 42 44 44 40 41 40 38 35 33 30 22 19 20 24 22 18 18 12 16 20 23 25 29 26 25 27 28 32 35 38 36 37 39 40 42
38 40 33 39 30 42 39 40 45 50 51 48 46 48 45 40 35 28 15 15 18 21 23 23 20 23 26 27 29 26 32 27 24 31 34 30 33 37 37 37 39 40 42
72 57 36 43 41 51 43 47 48 52 56 54 53 53 49 44 41 28 10 14 18 15 20 22 22 26 28 28 29 29 35 36 33 32 39 33 32 36 37 36 40 40 41
69 72 98 96 53 60 52 57 48 58 58 50 44 43 36 38 30 16 17 9 17 17 19 19 23 26 25 27 24 26 28 36 34 35 34 34 32 35 39 37 41 42 42
49 53 70 96 103 55 59 59 45 49 56 53 43 32 15 11 16 23 18 13 17 28 28 22 24 28 23 29 26 27 27 36 35 32 31 29 32 36 41 40 40 43 44
38 33 46 70 81 33 55 51 50 48 43 50 39 40 43 49 36 19 20 25 37 30 33 23 26 29 28 31 27 29 25 32 32 31 26 25 27 32 39 41 41 43 44
42 45 36 38 46 64 75 56 48 59 43 48 38 34 36 40 51 60 63 39 40 44 42 30 33 31 31 33 35 29 28 31 32 34 37 34 30 32 36 40 42 44 44
63 61 65 66 68 65 72 74 53 51 61 61 54 50 46 45 42 36 56 54 51 58 49 50 39 36 34 38 41 32 28 31 34 33 36 36 37 34 36 41 43 44 46
74 73 67 65 70 74 68 74 87 94 85 72 63 58 52 51 51 61 61 57 62 71 71 64 57 51 41 40 46 34 27 32 35 35 38 40 43 40 36 40 43 45 46
58 57 62 67 63 57 52 65 83 92 93 89 79 64 54 63 60 58 56 59 62 71 73 71 69 57 42 41 42 33 29 32 39 38 37 40 38 40 38 39 42 43 45
50 53 59 58 62 77 72 71 69 75 71 83 81 91 79 65 64 59 65 66 56 64 70 72 74 72 51 40 39 37 29 33 40 40 40 37 36 37 35 40 42 45 43
33 37 45 47 48 51 55 55 60 72 87 97 95 97 90 82 77 68 61 71 68 65 73 83 83 78 58 39 37 39 32 34 41 41 40 39 34 34 32 36 38 41 41
27 28 35 41 47 48 49 52 59 58 59 69 78 78 88 90 81 67 59 75 76 66 72 99 96 81 59 41 36 40 28 35 40 41 40 36 35 35 32 30 35 39 40
36 30 29 32 36 40 46 50 50 50 54 56 64 65 72 69 70 70 66 74 76 72 70 85 80 74 55 46 38 34 29 38 38 42 40 37 34 35 36 35 35 39 40
48 41 37 35 34 32 36 40 45 49 53 54 60 52 59 62 61 55 58 63 68 59 62 62 61 67 58 40 42 41 35 37 39 40 35 38 38 35 35 36 39 39 44
59 56 51 45 40 38 37 38 39 44 48 49 46 50 50 47 52 60 68 69 67 54 60 50 66 71 56 39 46 42 39 37 40 35 32 37 36 36 34 34 38 35 38
74 66 65 61 53 49 45 45 46 49 48 52 52 49 53 45 41 55 64 71 55 59 64 58 54 68 53 46 51 41 41 35 37 31 30 32 30 31 34 34 36 38 35
87 79 78 75 68 63 56 50 48 46 43 46 58 55 52 48 44 41 56 57 56 72 73 67 57 73 57 50 41 44 42 38 38 27 24 23 28 29 28 33 33 39 40
95 91 90 89 81 73 66 60 57 53 57 57 56 62 55 46 48 42 53 53 68 66 68 40 52 63 42 44 37 42 40 39 33 26 25 24 25 25 23 25 31 34 39
87 93 100 101 93 83 75 70 66 60 60 60 51 56 60 58 51 49 50 52 58 49 34 38 42 30 32 29 32 29 26 28 30 32 32 33 29 26 26 25 28 33 35
85 87 88 95 101 94 85 79 73 70 64 61 57 56 61 58 51 53 49 49 46 51 44 47 39 34 32 30 30 30 33 30 31 33 34 35 35 29 28 29 28 31 32
90 94 100 100 106 105 94 84 78 77 70 61 60 58 59 59 48 54 48 51 53 60 51 38 33 36 33 31 29 28 29 29 30 34 30 30 33 24 18 27 34 35 33
Wind_Direction_500mb
225 227 229 233 242 244 249 255 265 279 285 289 297 306 314 326 354 353 351 350 359 348 329 314 308 306 300 308 305 273 260 264 270 273 266 259 253 248 245 242 244 245 243
238 237 238 240 244 248 254 260 266 275 280 283 286 300 304 309 331 344 348 352 0 354 345 331 307 292 288 298 310 298 268 264 269 272 272 263 259 255 251 250 247 246 244
241 247 245 245 249 250 255 257 266 273 278 283 289 297 310 315 308 314 329 327 330 331 338 332 319 296 277 295 299 307 304 277 268 269 269 267 260 257 255 252 246 242 242
233 239 246 246 253 258 258 258 266 276 281 284 289 296 301 301 300 298 307 313 317 305 303 336 318 302 273 293 294 298 296 298 283 273 268 266 259 258 254 254 246 240 242
222 233 240 251 251 262 260 266 269 273 276 280 289 292 292 290 288 287 298 311 312 295 301 316 305 271 272 285 286 298 301 301 286 279 280 272 258 253 258 256 249 241 242
228 237 244 251 254 266 270 272 278 276 276 275 279 283 282 282 282 283 292 320 327 299 294 299 306 276 273 280 282 284 298 292 283 276 273 275 260 253 255 256 249 244 241
244 255 263 268 268 262 267 275 280 279 278 276 280 284 285 285 281 270 253 349 356 321 305 305 310 293 284 291 288 285 282 281 287 279 269 266 265 255 252 254 248 244 241
248 251 252 250 264 269 272 279 283 283 280 277 275 289 302 290 302 231 285 325 1 346 344 315 318 312 289 293 296 288 291 284 287 298 272 261 265 258 252 250 246 243 239
249 253 242 239 246 271 266 275 288 284 282 280 269 266 289 285 309 291 272 266 342 348 345 328 324 325 300 283 287 288 294 296 289 300 286 265 267 262 251 247 245 242 239
245 245 241 240 223 247 255 274 289 286 284 279 274 267 267 267 282 292 295 282 308 325 328 318 320 323 308 278 279 285 287 296 290 295 302 289 272 272 251 245 243 239 238
227 229 228 227 230 239 239 261 274 287 285 285 288 291 284 272 269 265 273 285 287 305 312 314 314 314 307 288 276 280 279 287 289 279 291 286 289 279 254 245 241 237 239
245 247 247 248 249 251 254 242 258 276 282 283 290 291 282 276 272 276 262 278 290 297 297 303 300 304 309 292 280 268 270 279 288 283 291 282 278 278 264 247 240 237 237
255 255 255 253 256 260 257 259 265 266 266 276 279 279 275 276 275 269 270 285 289 298 301 303 311 305 301 288 280 262 261 274 283 284 291 289 282 275 263 250 241 239 241
252 251 252 254 250 246 249 249 260 268 266 265 272 272 274 276 275 276 276 282 289 294 300 301 297 308 302 301 276 255 259 268 280 284 290 295 287 273 259 248 241 239 246
254 255 255 256 251 249 252 251 248 254 261 266 272 268 267 273 274 268 279 285 282 284 293 305 308 300 291 299 269 251 258 270 277 284 290 290 285 280 263 251 240 239 242
251 252 252 256 254 253 251 251 253 253 254 257 259 268 269 272 269 273 261 274 281 277 278 290 299 293 287 282 259 249 252 265 272 281 289 285 277 275 266 252 240 236 237
253 266 255 254 258 258 257 251 251 257 255 256 258 266 270 268 269 267 264 264 273 266 280 286 290 281 277 267 256 252 266 263 272 280 284 280 271 268 262 251 241 235 233
250 257 264 265 257 253 257 260 260 260 261 265 263 265 260 263 261 262 266 260 265 270 280 287 287 273 267 263 247 247 252 258 273 280 280 275 269 264 257 249 243 239 235
251 252 257 264 270 270 268 269 268 263 265 272 260 272 270 263 259 256 251 260 262 267 283 280 278 273 263 244 250 239 248 259 270 277 273 271 267 260 256 252 244 245 236
248 251 256 262 268 270 271 280 286 287 279 273 274 270 267 265 264 260 259 259 266 277 284 275 268 259 256 248 240 242 244 254 270 272 275 274 262 256 255 254 241 243 234
244 247 253 257 261 262 269 276 288 289 284 281 269 267 267 265 259 266 273 255 257 281 287 281 265 253 245 239 238 242 245 251 262 270 272 269 260 256 252 251 242 239 235
245 246 250 251 256 262 269 270 283 288 288 295 277 274 266 265 259 254 268 244 269 279 276 265 250 252 249 242 245 241 239 245 251 267 281 268 270 260 258 252 245 238 239
246 248 251 250 252 260 268 271 278 282 289 291 293 276 273 263 266 259 234 260 269 268 274 245 248 250 247 236 249 238 240 246 252 265 274 276 269 265 262 259 248 241 239
246 252 251 250 253 256 264 269 274 273 282 286 288 282 272 265 262 262 259 251 249 249 247 257 251 250 245 239 238 245 249 251 247 256 259 263 268 258 246 262 260 248 243
253 253 251 251 250 256 260 266 267 270 274 285 291 284 273 267 258 256 262 254 249 230 224 245 240 224 230 236 236 234 229 230 245 257 260 258 263 257 255 252 254 256 259
257 256 253 253 255 256 256 260 261 263 268 281 289 279 277 263 257 252 249 246 248 228 221 229 230 223 233 236 233 231 233 239 249 262 270 244 259 246 260 265 251 248 253
Wind_Speed_850mb
48 44 41 37 32 26 23 20 17 16 14 14 14 14 14 14 12 13 14 14 20 23 22 21 20 21 24 24 21 20 25 26 24 25 27 26 25 31 36 35 33 32 31
49 46 45 42 39 34 30 27 22 23 22 25 21 20 22 19 15 14 16 14 15 18 20 20 21 25 26 24 24 19 24 29 28 27 29 32 30 31 36 39 38 38 35
50 49 47 45 43 37 35 34 30 31 34 32 30 25 28 27 20 16 13 17 15 15 18 23 20 23 22 20 27 27 21 24 30 30 31 34 35 34 34 36 36 40 38
45 46 49 47 41 42 40 38 37 38 40 38 37 33 31 31 26 22 19 17 18 19 16 21 19 13 14 14 25 29 24 23 25 29 29 34 37 36 36 37 35 38 41
37 36 34 34 28 37 37 40 42 44 44 40 41 40 38 35 33 30 22 19 20 24 22 18 18 12 16 20 23 25 29 26 25 27 28 32 35 38 36 37 39 40 42
38 40 33 39 30 42 39 40 45 50 51 48 46 48 45 40 35 28 15 15 18 21 23 23 20 23 26 27 29 26 32 27 24 31 34 30 33 37 37 37 39 40 42
72 57 36 43 41 51 43 47 48 52 56 54 53 53 49 44 41 28 10 14 18 15 20 22 22 26 28 28 29 29 35 36 33 32 39 33 32 36 37 36 40 40 41
69 72 98 96 53 60 52 57 48 58 58 50 44 43 36 38 30 16 17 9 17 17 19 19 23 26 25 27 24 26 28 36 34 35 34 34 32 35 39 37 41 42 42
49 53 70 96 103 55 59 59 45 49 56 53 43 32 15 11 16 23 18 13 17 28 28 22 24 28 23 29 26 27 27 36 35 32 31 29 32 36 41 40 40 43 44
38 33 46 70 81 33 55 51 50 48 43 50 39 40 43 49 36 19 20 25 37 30 33 23 26 29 28 31 27 29 25 32 32 31 26 25 27 32 39 41 41 43 44
42 45 36 38 46 64 75 56 48 59 43 48 38 34 36 40 51 60 63 39 40 44 42 30 33 31 31 33 35 29 28 31 32 34 37 34 30 32 36 40 42 44 44
63 61 65 66 68 65 72 74 53 51 61 61 54 50 46 45 42 36 56 54 51 58 49 50 39 36 34 38 41 32 28 31 34 33 36 36 37 34 36 41 43 44 46
74 73 67 65 70 74 68 74 87 94 85 72 63 58 52 51 51 61 61 57 62 71 71 64 57 51 41 40 46 34 27 32 35 35 38 40 43 40 36 40 43 45 46
58 57 62 67 63 57 52 65 83 92 93 89 79 64 54 63 60 58 56 59 62 71 73 71 69 57 42 41 42 33 29 32 39 38 37 40 38 40 38 39 42 43 45
50 53 59 58 62 77 72 71 69 75 71 83 81 91 79 65 64 59 65 66 56 64 70 72 74 72 51 40 39 37 29 33 40 40 40 37 36 37 35 40 42 45 43
33 37 45 47 48 51 55 55 60 72 87 97 95 97 90 82 77 68 61 71 68 65 73 83 83 78 58 39 37 39 32 34 41 41 40 39 34 34 32 36 38 41 41
27 28 35 41 47 48 49 52 59 58 59 69 78 78 88 90 81 67 59 75 76 66 72 99 96 81 59 41 36 40 28 35 40 41 40 36 35 35 32 30 35 39 40
36 30 29 32 36 40 46 50 50 50 54 56 64 65 72 69 70 70 66 74 76 72 70 85 80 74 55 46 38 34 29 38 38 42 40 37 34 35 36 35 35 39 40
48 41 37 35 34 32 36 40 45 49 53 54 60 52 59 62 61 55 58 63 68 59 62 62 61 67 58 40 42 41 35 37 39 40 35 38 38 35 35 36 39 39 44
59 56 51 45 40 38 37 38 39 44 48 49 46 50 50 47 52 60 68 69 67 54 60 50 66 71 56 39 46 42 39 37 40 35 32 37 36 36 34 34 38 35 38
74 66 65 61 53 49 45 45 46 49 48 52 52 49 53 45 41 55 64 71 55 59 64 58 54 68 53 46 51 41 41 35 37 31 30 32 30 31 34 34 36 38 35
87 79 78 75 68 63 56 50 48 46 43 46 58 55 52 48 44 41 56 57 56 72 73 67 57 73 57 50 41 44 42 38 38 27 24 23 28 29 28 33 33 39 40
95 91 90 89 81 73 66 60 57 53 57 57 56 62 55 46 48 42 53 53 68 66 68 40 52 63 42 44 37 42 40 39 33 26 25 24 25 25 23 25 31 34 39
87 93 100 101 93 83 75 70 66 60 60 60 51 56 60 58 51 49 50 52 58 49 34 38 42 30 32 29 32 29 26 28 30 32 32 33 29 26 26 25 28 33 35
85 87 88 95 101 94 85 79 73 70 64 61 57 56 61 58 51 53 49 49 46 51 44 47 39 34 32 30 30 30 33 30 31 33 34 35 35 29 28 29 28 31 32
90 94 100 100 106 105 94 84 78 77 70 61 60 58 59 59 48 54 48 51 53 60 51 38 33 36 33 31 29 28 29 29 30 34 30 30 33 24 18 27 34 35 33
Wind_Direction_850mb
225 227 229 233 242 244 249 255 265 279 285 289 297 306 314 326 354 353 351 350 359 348 329 314 308 306 300 308 305 273 260 264 270 273 266 259 253 248 245 242 244 245 243
238 237 238 240 244 248 254 260 266 275 280 283 286 300 304 309 331 344 348 352 0 354 345 331 307 292 288 298 310 298 268 264 269 272 272 263 259 255 251 250 247 246 244
241 247 245 245 249 250 255 257 266 273 278 283 289 297 310 315 308 314 329 327 330 331 338 332 319 296 277 295 299 307 304 277 268 269 269 267 260 257 255 252 246 242 242
233 239 246 246 253 258 258 258 266 276 281 284 289 296 301 301 300 298 307 313 317 305 303 336 318 302 273 293 294 298 296 298 283 273 268 266 259 258 254 254 246 240 242
222 233 240 251 251 262 260 266 269 273 276 280 289 292 292 290 288 287 298 311 312 295 301 316 305 271 272 285 286 298 301 301 286 279 280 272 258 253 258 256 249 241 242
228 237 244 251 254 266 270 272 278 276 276 275 279 283 282 282 282 283 292 320 327 299 294 299 306 276 273 280 282 284 298 292 283 276 273 275 260 253 255 256 249 244 241
244 255 263 268 268 262 267 275 280 279 278 276 280 284 285 285 281 270 253 349 356 321 305 305 310 293 284 291 288 285 282 281 287 279 269 266 265 255 252 254 248 244 241
248 251 252 250 264 269 272 279 283 283 280 277 275 289 302 290 302 231 285 325 1 346 344 315 318 312 289 293 296 288 291 284 287 298 272 261 265 258 252 250 246 243 239
249 253 242 239 246 271 266 275 288 284 282 280 269 266 289 285 309 291 272 266 342 348 345 328 324 325 300 283 287 288 294 296 289 300 286 265 267 262 251 247 245 242 239
245 245 241 240 223 247 255 274 289 286 284 279 274 267 267 267 282 292 295 282 308 325 328 318 320 323 308 278 279 285 287 296 290 295 302 289 272 272 251 245 243 239 238
227 229 228 227 230 239 239 261 274 287 285 285 288 291 284 272 269 265 273 285 287 305 312 314 314 314 307 288 276 280 279 287 289 279 291 286 289 279 254 245 241 237 239
245 247 247 248 249 251 254 242 258 276 282 283 290 291 282 276 272 276 262 278 290 297 297 303 300 304 309 292 280 268 270 279 288 283 291 282 278 278 264 247 240 237 237
255 255 255 253 256 260 257 259 265 266 266 276 279 279 275 276 275 269 270 285 289 298 301 303 311 305 301 288 280 262 261 274 283 284 291 289 282 275 263 250 241 239 241
252 251 252 254 250 246 249 249 260 268 266 265 272 272 274 276 275 276 276 282 289 294 300 301 297 308 302 301 276 255 259 268 280 284 290 295 287 273 259 248 241 239 246
254 255 255 256 251 249 252 251 248 254 261 266 272 268 267 273 274 268 279 285 282 284 293 305 308 300 291 299 269 251 258 270 277 284 290 290 285 280 263 251 240 239 242
251 252 252 256 254 253 251 251 253 253 254 257 259 268 269 272 269 273 261 274 281 277 278 290 299 293 287 282 259 249 252 265 272 281 289 285 277 275 266 252 240 236 237
253 266 255 254 258 258 257 251 251 257 255 256 258 266 270 268 269 267 264 264 273 266 280 286 290 281 277 267 256 252 266 263 272 280 284 280 271 268 262 251 241 235 233
250 257 264 265 257 253 257 260 260 260 261 265 263 265 260 263 261 262 266 260 265 270 280 287 287 273 267 263 247 247 252 258 273 280 280 275 269 264 257 249 243 239 235
251 252 257 264 270 270 268 269 268 263 265 272 260 272 270 263 259 256 251 260 262 267 283 280 278 273 263 244 250 239 248 259 270 277 273 271 267 260 256 252 244 245 236
248 251 256 262 268 270 271 280 286 287 279 273 274 270 267 265 264 260 259 259 266 277 284 275 268 259 256 248 240 242 244 254 270 272 275 274 262 256 255 254 241 243 234
244 247 253 257 261 262 269 276 288 289 284 281 269 267 267 265 259 266 273 255 257 281 287 281 265 253 245 239 238 242 245 251 262 270 272 269 260 256 252 251 242 239 235
245 246 250 251 256 262 269 270 283 288 288 295 277 274 266 265 259 254 268 244 269 279 276 265 250 252 249 242 245 241 239 245 251 267 281 268 270 260 258 252 245 238 239
246 248 251 250 252 260 268 271 278 282 289 291 293 276 273 263 266 259 234 260 269 268 274 245 248 250 247 236 249 238 240 246 252 265 274 276 269 265 262 259 248 241 239
246 252 251 250 253 256 264 269 274 273 282 286 288 282 272 265 262 262 259 251 249 249 247 257 251 250 245 239 238 245 249 251 247 256 259 263 268 258 246 262 260 248 243
253 253 251 251 250 256 260 266 267 270 274 285 291 284 273 267 258 256 262 254 249 230 224 245 240 224 230 236 236 234 229 230 245 257 260 258 263 257 255 252 254 256 259
257 256 253 253 255 256 256 260 261 263 268 281 289 279 277 263 257 252 249 246 248 228 221 229 230 223 233 236 233 231 233 239 249 262 270 244 259 246 260 265 251 248 253